Weather History for CWBT - March, 2012

Change the Weather History Date:

Thursday, March 15, 2012

  Actual Average (CYGV) Record (CYGV)
Temperature  
Mean Temperature 20 °F -  
Max Temperature 32 °F 24 °F - (-1)
Min Temperature 8 °F 6 °F - (-1)
Degree Days  
Heating Degree Days 45    
Moisture  
Dew Point 11 °F    
Average Humidity 72    
Maximum Humidity 96    
Minimum Humidity 38    
Precipitation  
Precipitation 0.00 in - - ()
Sea Level Pressure  
Sea Level Pressure 30.53 in    
Wind  
Wind Speed 4 mph ()    
Max Wind Speed 8 mph    
Max Gust Speed -    
Averages and records for this station are not official NWS values.
T = Trace of Precipitation, MM = Missing Value Source: Averaged Metar Reports

Daily Weather History Graph

Daily Weather History Graph

Search for Another Location

Airport or City:

Trip Planner

Search our weather history database for the weather conditions in past years. The results will help you decide how hot, cold, wet, or windy it might be!

Date:

Astronomy

Mar. 15, 2012 Rise Set
Actual Time 6:29 AM EDT 6:22 PM EDT
Civil Twilight 5:57 AM EDT 6:55 PM EDT
Nautical Twilight 5:19 AM EDT 7:33 PM EDT
Astronomical Twilight 4:40 AM EDT 8:12 PM EDT
Moon 2:29 AM EDT (3/15) 10:59 AM EDT (3/15)
Length of Visible Light 12h 57m
Length of Day
11h 53m
Last Quarter, 43% of the Moon is Illuminated
Mar 15
Last Quarter
Mar 22
New
Mar 30
First Quarter
Apr 6
Full
Apr 13
Last Quarter

Hourly Weather History & Observations

Time (EDT) Temp. Windchill Dew Point Humidity Pressure Visibility Wind Dir Wind Speed Gust Speed Precip Events Conditions
12:00 AM 12.0 °F 5.9 °F 7.5 °F 82% 30.62 in - North 3.5 mph - N/A   Unknown
1:00 AM 11.3 °F 5.1 °F 7.2 °F 83% 30.61 in - North 3.5 mph - N/A   Unknown
2:00 AM 11 °F - 7 °F 74% 30.60 in - North 3.5 mph - -  
2:00 AM 11.5 °F 5.3 °F 6.6 °F 81% 30.60 in - North 3.5 mph - N/A   Unknown
3:00 AM 9.5 °F 3.0 °F 5.7 °F 85% 30.58 in - North 3.5 mph - N/A   Unknown
4:00 AM 9.0 °F 0.6 °F 4.8 °F 83% 30.59 in - North 4.6 mph - N/A   Unknown
5:00 AM 9.7 °F 1.4 °F 4.3 °F 79% 30.59 in - North 4.6 mph - N/A   Unknown
6:00 AM 9.1 °F 0.8 °F 3.4 °F 77% 30.60 in - North 4.6 mph - N/A   Unknown
7:00 AM 9.3 °F 1.0 °F 3.0 °F 76% 30.61 in - NNE 4.6 mph - N/A   Unknown
8:00 AM 15 °F - 5 °F 50% 30.60 in - NE 4.6 mph - -  
8:00 AM 15.4 °F 8.1 °F 4.6 °F 62% 30.60 in - NE 4.6 mph - N/A   Unknown
9:00 AM 22.3 °F 14.9 °F 4.8 °F 47% 30.60 in - NE 5.8 mph - N/A   Unknown
10:00 AM 27.0 °F 19.5 °F 4.8 °F 39% 30.59 in - ENE 6.9 mph - N/A   Unknown
11:00 AM 30.4 °F 24.5 °F 7.5 °F 38% 30.57 in - ENE 5.8 mph - N/A   Unknown
12:00 PM 29.8 °F 22.2 °F 14.4 °F 53% 30.54 in - SE 8.1 mph - N/A   Unknown
1:00 PM 31.3 °F 25.6 °F 19.6 °F 62% 30.53 in - SE 5.8 mph - N/A   Unknown
2:00 PM 30 °F - 20 °F 56% 30.50 in - SE 6.9 mph - -  
2:00 PM 30.0 °F 23.2 °F 20.5 °F 68% 30.50 in - SE 6.9 mph - N/A   Unknown
3:00 PM 31.3 °F 24.7 °F 21.4 °F 67% 30.49 in - ESE 6.9 mph - N/A   Unknown
4:00 PM 31.6 °F 28.3 °F 21.2 °F 65% 30.47 in - SE 3.5 mph - N/A   Unknown
5:00 PM 29.3 °F 24.3 °F 14.9 °F 55% 30.46 in - East 4.6 mph - N/A   Unknown
6:00 PM 27.1 °F 21.8 °F 19.0 °F 72% 30.44 in - East 4.6 mph - N/A   Unknown
7:00 PM 23.7 °F - 19.2 °F 83% 30.45 in - East 2.3 mph - N/A   Unknown
8:00 PM 18 °F - 16 °F 89% 30.44 in - ENE 3.5 mph - -  
8:00 PM 18.1 °F 12.9 °F 16.2 °F 92% 30.44 in - ENE 3.5 mph - N/A   Unknown
9:00 PM 15.4 °F - 14.4 °F 95% 30.43 in - NE 2.3 mph - N/A   Unknown
10:00 PM 15.8 °F 10.2 °F 14.9 °F 96% 30.41 in - NE 3.5 mph - N/A   Unknown
11:00 PM 13.3 °F - 12.0 °F 95% 30.39 in - North 2.3 mph - N/A   Unknown